Terminal Aerodrome Forecast
Issued by NWS

Home | Current Version | Previous Version | Text Only | Print | Product List | Glossary Off
Versions: 1 2 3 4 5 6 7 8 9 10 11 12 13 14 15 16 17 18 19 20 21 22 23 24 25 26

000
FTUS42 KMHX 140300 AAA
TAFISO
TAF AMD
KISO 140321Z 1403/1424 36005KT 6SM BR VCSH BKN007 OVC010
     FM140600 01006KT 5SM BR OVC009
     FM141300 04008KT P6SM OVC020
      AMD LTD TO CLD VIS AND WIND=

USA.gov is the U.S. government's official web portal to all federal, state and local government web resources and services.